| time (UTC) | temp C | wind direction | speed KPH | gust KPH | rain 1hr cm | rain 24hr cm | rain mn cm | humidity % | barometer mb |
| 20260503053610 | 13 | 104 | 4.8 | 9.7 | 0.00 | 0.00 | 0.00 | 58 | 1001.0 |
| 20260503053110 | 13 | 125 | 4.8 | 11.3 | 0.00 | 0.00 | 0.00 | 59 | 1000.8 |
| 20260503052609 | 13 | 108 | 8.0 | 9.7 | 0.00 | 0.00 | 0.00 | 59 | 1001.0 |
| 20260503052058 | 12 | 135 | 4.8 | 11.3 | 0.00 | 0.00 | 0.00 | 60 | 1000.8 |
| 20260503051557 | 12 | 125 | 9.7 | 11.3 | 0.00 | 0.00 | 0.00 | 60 | 1000.9 |
| 20260503051057 | 12 | 113 | 3.2 | 11.3 | 0.00 | 0.00 | 0.00 | 61 | 1000.9 |
| 20260503050546 | 12 | 130 | 8.0 | 11.3 | 0.00 | 0.00 | 0.00 | 62 | 1000.9 |
| 20260503050045 | 12 | 124 | 6.4 | 9.7 | 0.00 | 0.00 | 0.00 | 62 | 1000.9 |
| 20260503045544 | 11 | 109 | 6.4 | 11.3 | 0.00 | 0.00 | 0.00 | 62 | 1000.8 |
| 20260503045044 | 11 | 148 | 9.7 | 11.3 | 0.00 | 0.00 | 0.00 | 62 | 1000.7 |
| 20260503044543 | 11 | 130 | 9.7 | 11.3 | 0.00 | 0.00 | 0.00 | 63 | 1000.7 |
| 20260503044032 | 11 | 135 | 9.7 | 9.7 | 0.00 | 0.00 | 0.00 | 63 | 1000.9 |
| 20260503043531 | 11 | 122 | 6.4 | 9.7 | 0.00 | 0.00 | 0.00 | 63 | 1000.8 |
| 20260503043021 | 11 | 119 | 8.0 | 9.7 | 0.00 | 0.00 | 0.00 | 63 | 1000.8 |
| 20260503042520 | 11 | 126 | 8.0 | 9.7 | 0.00 | 0.00 | 0.00 | 63 | 1000.9 |
| 20260503042020 | 11 | 138 | 4.8 | 9.7 | 0.00 | 0.00 | 0.00 | 64 | 1000.8 |
| 20260503041520 | 11 | 132 | 6.4 | 8.0 | 0.00 | 0.00 | 0.00 | 64 | 1000.8 |
| 20260503041019 | 10 | 118 | 6.4 | 8.0 | 0.00 | 0.00 | 0.00 | 64 | 1000.9 |
| 20260503040519 | 10 | 133 | 8.0 | 9.7 | 0.00 | 0.00 | 0.00 | 64 | 1000.8 |
| 20260503040019 | 10 | 133 | 9.7 | 11.3 | 0.00 | 0.00 | 0.00 | 64 | 1000.8 |
| 20260503035508 | 10 | 130 | 9.7 | 9.7 | 0.00 | 0.00 | 0.00 | 64 | 1001.0 |
| 20260503035008 | 11 | 120 | 8.0 | 11.3 | 0.00 | 0.00 | 0.00 | 64 | 1000.7 |
| 20260503034507 | 10 | 124 | 9.7 | 11.3 | 0.00 | 0.00 | 0.00 | 64 | 1001.0 |
| 20260503034006 | 10 | 130 | 8.0 | 11.3 | 0.00 | 0.00 | 0.00 | 64 | 1000.8 |
| 20260503033506 | 11 | 120 | 9.7 | 11.3 | 0.00 | 0.00 | 0.00 | 63 | 1000.8 |
| 20260503033006 | 11 | 126 | 11.3 | 12.9 | 0.00 | 0.00 | 0.00 | 62 | 1000.8 |
| 20260503032505 | 11 | 146 | 11.3 | 12.9 | 0.00 | 0.00 | 0.00 | 62 | 1000.9 |
| 20260503032004 | 11 | 131 | 14.5 | 16.1 | 0.00 | 0.00 | 0.00 | 61 | 1001.0 |
| 20260503031504 | 11 | 126 | 14.5 | 16.1 | 0.00 | 0.00 | 0.00 | 60 | 1000.9 |
| 20260503031002 | 11 | 136 | 16.1 | 17.7 | 0.00 | 0.00 | 0.00 | 60 | 1001.1 |
| 20260503030502 | 11 | 128 | 16.1 | 16.1 | 0.00 | 0.00 | 0.00 | 60 | 1000.8 |
| 20260503030002 | 11 | 131 | 16.1 | 17.7 | 0.00 | 0.00 | 0.00 | 59 | 1001.1 |
| 20260503025502 | 12 | 115 | 14.5 | 16.1 | 0.00 | 0.00 | 0.00 | 59 | 1001.0 |
| 20260503025001 | 12 | 130 | 14.5 | 16.1 | 0.00 | 0.00 | 0.00 | 59 | 1000.9 |
| 20260503024501 | 12 | 121 | 11.3 | 14.5 | 0.00 | 0.00 | 0.00 | 59 | 1001.0 |
| 20260503024001 | 12 | 122 | 11.3 | 12.9 | 0.00 | 0.00 | 0.00 | 59 | 1001.0 |
| 20260503023501 | 12 | 115 | 11.3 | 11.3 | 0.00 | 0.00 | 0.00 | 59 | 1001.2 |
| 20260503023000 | 12 | 136 | 9.7 | 12.9 | 0.00 | 0.00 | 0.00 | 59 | 1001.0 |
| 20260503022500 | 12 | 128 | 11.3 | 11.3 | 0.00 | 0.00 | 0.00 | 58 | 1001.2 |
| 20260503021959 | 12 | 135 | 11.3 | 11.3 | 0.00 | 0.00 | 0.00 | 58 | 1001.0 |
| 20260503021459 | 12 | 143 | 9.7 | 12.9 | 0.00 | 0.00 | 0.00 | 58 | 1000.9 |
| 20260503020958 | 12 | 139 | 9.7 | 11.3 | 0.00 | 0.00 | 0.00 | 58 | 1001.2 |
| 20260503020458 | 12 | 149 | 8.0 | 11.3 | 0.00 | 0.00 | 0.00 | 58 | 1001.2 |
| 20260503015958 | 12 | 140 | 9.7 | 12.9 | 0.00 | 0.00 | 0.00 | 58 | 1001.3 |
| 20260503015458 | 12 | 160 | 9.7 | 12.9 | 0.00 | 0.00 | 0.00 | 58 | 1001.3 |
| 20260503014957 | 12 | 144 | 12.9 | 12.9 | 0.00 | 0.00 | 0.00 | 58 | 1001.3 |
| 20260503014457 | 12 | 153 | 14.5 | 16.1 | 0.00 | 0.00 | 0.00 | 59 | 1001.4 |
| 20260503013956 | 12 | 130 | 12.9 | 16.1 | 0.00 | 0.00 | 0.00 | 59 | 1001.3 |
| 20260503013455 | 12 | 126 | 14.5 | 16.1 | 0.00 | 0.00 | 0.00 | 59 | 1001.3 |
| 20260503012955 | 12 | 131 | 12.9 | 14.5 | 0.00 | 0.00 | 0.00 | 59 | 1001.2 |
| 20260503012455 | 12 | 134 | 11.3 | 14.5 | 0.00 | 0.00 | 0.00 | 59 | 1001.4 |
| 20260503011954 | 12 | 155 | 11.3 | 14.5 | 0.00 | 0.00 | 0.00 | 59 | 1001.5 |
| 20260503011452 | 12 | 140 | 14.5 | 14.5 | 0.00 | 0.00 | 0.00 | 59 | 1001.3 |
| 20260503010952 | 12 | 140 | 11.3 | 12.9 | 0.00 | 0.00 | 0.00 | 59 | 1001.4 |
| 20260503010451 | 12 | 135 | 12.9 | 14.5 | 0.00 | 0.00 | 0.00 | 59 | 1001.4 |
| 20260503005951 | 12 | 147 | 12.9 | 16.1 | 0.00 | 0.00 | 0.00 | 59 | 1001.5 |
| 20260503005450 | 12 | 135 | 9.7 | 14.5 | 0.00 | 0.00 | 0.00 | 59 | 1001.4 |
| 20260503004949 | 12 | 139 | 9.7 | 12.9 | 0.00 | 0.00 | 0.00 | 59 | 1001.4 |
| 20260503004449 | 12 | 142 | 11.3 | 16.1 | 0.00 | 0.00 | 0.00 | 59 | 1001.5 |
| 20260503003947 | 12 | 146 | 12.9 | 14.5 | 0.00 | 0.00 | 0.00 | 59 | 1001.5 |
| 20260503003447 | 12 | 163 | 8.0 | 12.9 | 0.00 | 0.00 | 0.00 | 59 | 1001.8 |
| 20260503002946 | 12 | 161 | 11.3 | 14.5 | 0.00 | 0.00 | 0.00 | 58 | 1001.7 |
| 20260503002446 | 12 | 133 | 11.3 | 14.5 | 0.00 | 0.00 | 0.00 | 58 | 1001.6 |
| 20260503001945 | 12 | 153 | 11.3 | 16.1 | 0.00 | 0.00 | 0.00 | 58 | 1001.6 |
| 20260503001445 | 12 | 145 | 11.3 | 16.1 | 0.00 | 0.00 | 0.00 | 58 | 1001.8 |
| 20260503000945 | 13 | 143 | 12.9 | 16.1 | 0.00 | 0.00 | 0.00 | 58 | 1001.7 |
| 20260503000444 | 13 | 146 | 17.7 | 20.9 | 0.00 | 0.00 | 0.00 | 57 | 1001.7 |
| 20260502235944 | 12 | 134 | 19.3 | 20.9 | 0.00 | 0.00 | 0.00 | 58 | 1001.9 |
| 20260502235444 | 12 | 137 | 16.1 | 20.9 | 0.00 | 0.00 | 0.00 | 58 | 1001.9 |
| 20260502234944 | 12 | 139 | 14.5 | 16.1 | 0.00 | 0.00 | 0.00 | 59 | 1002.0 |
| 20260502234443 | 12 | 140 | 11.3 | 14.5 | 0.00 | 0.00 | 0.00 | 60 | 1001.9 |
| 20260502233942 | 12 | 139 | 14.5 | 16.1 | 0.00 | 0.00 | 0.00 | 59 | 1002.0 |
| 20260502233442 | 12 | 137 | 14.5 | 14.5 | 0.00 | 0.00 | 0.00 | 58 | 1001.9 |
| 20260502232942 | 12 | 151 | 11.3 | 12.9 | 0.00 | 0.00 | 0.00 | 58 | 1002.3 |
| 20260502232441 | 12 | 140 | 11.3 | 12.9 | 0.00 | 0.00 | 0.00 | 58 | 1001.9 |
| 20260502231941 | 13 | 139 | 8.0 | 11.3 | 0.00 | 0.00 | 0.00 | 57 | 1002.1 |
| 20260502231430 | 13 | 145 | 9.7 | 11.3 | 0.00 | 0.00 | 0.00 | 57 | 1002.1 |
| 20260502230930 | 13 | 148 | 8.0 | 9.7 | 0.00 | 0.00 | 0.00 | 56 | 1002.2 |
| 20260502213757 | 16 | 143 | 9.7 | 12.9 | 0.00 | 0.00 | 0.00 | 45 | 1002.2 |
| 20260502213256 | 16 | 138 | 9.7 | 11.3 | 0.00 | 0.00 | 0.00 | 45 | 1002.3 |
| 20260502212756 | 16 | 143 | 9.7 | 11.3 | 0.00 | 0.00 | 0.00 | 45 | 1002.3 |
| 20260502212255 | 16 | 150 | 8.0 | 11.3 | 0.00 | 0.00 | 0.00 | 44 | 1002.2 |
| 20260502211755 | 16 | 150 | 9.7 | 11.3 | 0.00 | 0.00 | 0.00 | 44 | 1002.3 |
| 20260502211254 | 16 | 141 | 9.7 | 9.7 | 0.00 | 0.00 | 0.00 | 44 | 1002.2 |
| 20260502210753 | 16 | 148 | 9.7 | 11.3 | 0.00 | 0.00 | 0.00 | 44 | 1002.5 |
| 20260502210253 | 17 | 142 | 11.3 | 11.3 | 0.00 | 0.00 | 0.00 | 43 | 1002.5 |
| 20260502205752 | 17 | 144 | 9.7 | 11.3 | 0.00 | 0.00 | 0.00 | 43 | 1002.5 |
| 20260502205252 | 17 | 138 | 8.0 | 11.3 | 0.00 | 0.00 | 0.00 | 43 | 1002.6 |
| 20260502204751 | 17 | 141 | 8.0 | 12.9 | 0.00 | 0.00 | 0.00 | 42 | 1002.3 |
| 20260502204251 | 17 | 156 | 9.7 | 12.9 | 0.00 | 0.00 | 0.00 | 42 | 1002.6 |
| 20260502203750 | 17 | 141 | 11.3 | 12.9 | 0.00 | 0.00 | 0.00 | 41 | 1002.6 |
| 20260502203250 | 17 | 149 | 12.9 | 12.9 | 0.00 | 0.00 | 0.00 | 41 | 1002.6 |
| 20260502202750 | 18 | 158 | 9.7 | 12.9 | 0.00 | 0.00 | 0.00 | 40 | 1002.7 |
| 20260502202249 | 18 | 157 | 9.7 | 12.9 | 0.00 | 0.00 | 0.00 | 40 | 1002.8 |
| 20260502201749 | 18 | 157 | 9.7 | 14.5 | 0.00 | 0.00 | 0.00 | 40 | 1002.8 |
| 20260502201248 | 18 | 158 | 9.7 | 12.9 | 0.00 | 0.00 | 0.00 | 40 | 1002.6 |
| 20260502200748 | 18 | 158 | 9.7 | 14.5 | 0.00 | 0.00 | 0.00 | 40 | 1002.8 |
| 20260502200247 | 18 | 140 | 9.7 | 12.9 | 0.00 | 0.00 | 0.00 | 40 | 1002.9 |
| 20260502195747 | 18 | 156 | 11.3 | 12.9 | 0.00 | 0.00 | 0.00 | 39 | 1002.9 |
| 20260502195247 | 18 | 157 | 11.3 | 12.9 | 0.00 | 0.00 | 0.00 | 39 | 1002.9 |
| 20260502194747 | 19 | 159 | 11.3 | 12.9 | 0.00 | 0.00 | 0.00 | 38 | 1002.8 |
| 20260502194246 | 19 | 145 | 11.3 | 12.9 | 0.00 | 0.00 | 0.00 | 37 | 1002.8 |
| 20260502193746 | 20 | 150 | 12.9 | 12.9 | 0.00 | 0.00 | 0.00 | 37 | 1002.8 |
| 20260502193246 | 20 | 149 | 11.3 | 12.9 | 0.00 | 0.00 | 0.00 | 36 | 1002.7 |
| 20260502192745 | 20 | 154 | 11.3 | 12.9 | 0.00 | 0.00 | 0.00 | 36 | 1002.9 |
| 20260502192244 | 20 | 147 | 11.3 | 12.9 | 0.00 | 0.00 | 0.00 | 35 | 1002.8 |
| 20260502191744 | 20 | 143 | 11.3 | 14.5 | 0.00 | 0.00 | 0.00 | 35 | 1002.9 |
| 20260502191234 | 20 | 171 | 14.5 | 16.1 | 0.00 | 0.00 | 0.00 | 34 | 1002.8 |
| 20260502190733 | 20 | 146 | 14.5 | 14.5 | 0.00 | 0.00 | 0.00 | 33 | 1002.8 |
| 20260502190232 | 20 | 144 | 11.3 | 12.9 | 0.00 | 0.00 | 0.00 | 33 | 1002.8 |
| 20260502185722 | 20 | 157 | 9.7 | 11.3 | 0.00 | 0.00 | 0.00 | 33 | 1002.8 |
| 20260502185222 | 20 | 156 | 9.7 | 9.7 | 0.00 | 0.00 | 0.00 | 33 | 1002.9 |
| 20260502184721 | 20 | 160 | 8.0 | 9.7 | 0.00 | 0.00 | 0.00 | 33 | 1002.8 |
| 20260502184220 | 20 | 156 | 8.0 | 8.0 | 0.00 | 0.00 | 0.00 | 33 | 1002.7 |
| 20260502183710 | 21 | 147 | 8.0 | 9.7 | 0.00 | 0.00 | 0.00 | 33 | 1002.8 |
| 20260502183209 | 21 | 151 | 8.0 | 11.3 | 0.00 | 0.00 | 0.00 | 33 | 1002.7 |
| 20260502182709 | 21 | 156 | 9.7 | 11.3 | 0.00 | 0.00 | 0.00 | 33 | 1002.7 |
| 20260502182208 | 21 | 149 | 9.7 | 11.3 | 0.00 | 0.00 | 0.00 | 33 | 1002.7 |
| 20260502181658 | 21 | 148 | 9.7 | 12.9 | 0.00 | 0.00 | 0.00 | 33 | 1002.3 |
| 20260502181157 | 21 | 136 | 9.7 | 11.3 | 0.00 | 0.00 | 0.00 | 32 | 1002.4 |
| 20260502180647 | 21 | 148 | 8.0 | 11.3 | 0.00 | 0.00 | 0.00 | 32 | 1002.7 |
| 20260502180147 | 21 | 152 | 8.0 | 11.3 | 0.00 | 0.00 | 0.00 | 31 | 1002.5 |
| 20260502164031 | 23 | 129 | 8.0 | 14.5 | 0.00 | 0.00 | 0.00 | 28 | 1003.3 |
| 20260502163530 | 23 | 153 | 11.3 | 16.1 | 0.00 | 0.00 | 0.00 | 28 | 1003.2 |
| 20260502163020 | 23 | 136 | 12.9 | 16.1 | 0.00 | 0.00 | 0.00 | 28 | 1003.2 |
| 20260502162519 | 23 | 179 | 14.5 | 16.1 | 0.00 | 0.00 | 0.00 | 28 | 1003.3 |
| 20260502162009 | 23 | 189 | 11.3 | 12.9 | 0.00 | 0.00 | 0.00 | 28 | 1003.5 |
| 20260502161509 | 23 | 169 | 4.8 | 9.7 | 0.00 | 0.00 | 0.00 | 28 | 1003.6 |
| 20260502160958 | 23 | 177 | 14.5 | 17.7 | 0.00 | 0.00 | 0.00 | 28 | 1003.7 |
| 20260502160458 | 23 | 257 | 6.4 | 11.3 | 0.00 | 0.00 | 0.00 | 29 | 1003.8 |
| 20260502151914 | 23 | 233 | 3.2 | 4.8 | 0.00 | 0.00 | 0.00 | 29 | 1004.2 |
| 20260502151403 | 23 | 134 | 9.7 | 12.9 | 0.00 | 0.00 | 0.00 | 29 | 1004.2 |
| 20260502150903 | 23 | 163 | 3.2 | 14.5 | 0.00 | 0.00 | 0.00 | 29 | 1004.3 |
| 20260502150353 | 23 | 132 | 9.7 | 16.1 | 0.00 | 0.00 | 0.00 | 29 | 1004.4 |
| 20260502130712 | 24 | 149 | 1.6 | 11.3 | 0.00 | 0.00 | 0.00 | 28 | 1005.5 |
| 20260502130212 | 23 | 158 | 4.8 | 9.7 | 0.00 | 0.00 | 0.00 | 28 | 1005.7 |
| 20260502123650 | 23 | 245 | 4.8 | 4.8 | 0.00 | 0.00 | 0.00 | 29 | 1006.0 |
| 20260502123150 | 23 | 145 | 8.0 | 9.7 | 0.00 | 0.00 | 0.00 | 29 | 1006.3 |
| 20260502122639 | 23 | 129 | 11.3 | 22.5 | 0.00 | 0.00 | 0.00 | 29 | 1006.2 |
| 20260502122139 | 23 | 97 | 3.2 | 4.8 | 0.00 | 0.00 | 0.00 | 28 | 1006.4 |
| 20260502121628 | 22 | 141 | 0.0 | 3.2 | 0.00 | 0.00 | 0.00 | 29 | 1006.4 |
| 20260502121128 | 22 | 134 | 8.0 | 16.1 | 0.00 | 0.00 | 0.00 | 29 | 1006.4 |
| 20260502120627 | 23 | 144 | 1.6 | 9.7 | 0.00 | 0.00 | 0.00 | 29 | 1006.6 |
| 20260502120117 | 23 | 127 | 4.8 | 9.7 | 0.00 | 0.00 | 0.00 | 28 | 1006.5 |
| 20260502115617 | 22 | 343 | 3.2 | 8.0 | 0.00 | 0.00 | 0.00 | 28 | 1006.6 |
| 20260502115106 | 22 | 13 | 4.8 | 11.3 | 0.00 | 0.00 | 0.00 | 28 | 1006.7 |
| 20260502114606 | 22 | 57 | 6.4 | 11.3 | 0.00 | 0.00 | 0.00 | 28 | 1006.8 |
| 20260502114055 | 23 | 291 | 4.8 | 11.3 | 0.00 | 0.00 | 0.00 | 29 | 1006.8 |
| 20260502113555 | 22 | 126 | 6.4 | 11.3 | 0.00 | 0.00 | 0.00 | 30 | 1006.9 |
| 20260502113055 | 22 | 94 | 1.6 | 3.2 | 0.00 | 0.00 | 0.00 | 30 | 1006.7 |
| 20260502112544 | 22 | 95 | 8.0 | 16.1 | 0.00 | 0.00 | 0.00 | 30 | 1006.9 |
| 20260502112044 | 22 | 25 | 3.2 | 9.7 | 0.00 | 0.00 | 0.00 | 30 | 1007.1 |
| 20260502111544 | 22 | 135 | 4.8 | 9.7 | 0.00 | 0.00 | 0.00 | 29 | 1007.0 |
| 20260502111043 | 23 | 136 | 19.3 | 20.9 | 0.00 | 0.00 | 0.00 | 29 | 1007.0 |
| 20260502110533 | 22 | 176 | 4.8 | 11.3 | 0.00 | 0.00 | 0.00 | 29 | 1007.1 |
| 20260502110033 | 22 | 41 | 1.6 | 9.7 | 0.00 | 0.00 | 0.00 | 29 | 1007.1 |
| 20260502105532 | 22 | 217 | 4.8 | 11.3 | 0.00 | 0.00 | 0.00 | 30 | 1007.2 |
| 20260502105032 | 22 | 171 | 1.6 | 4.8 | 0.00 | 0.00 | 0.00 | 30 | 1007.4 |
| 20260502104532 | 22 | 150 | 8.0 | 14.5 | 0.00 | 0.00 | 0.00 | 30 | 1007.3 |
| 20260502104023 | 22 | 137 | 12.9 | 14.5 | 0.00 | 0.00 | 0.00 | 30 | 1007.4 |
| 20260502103521 | 22 | 344 | 1.6 | 14.5 | 0.00 | 0.00 | 0.00 | 30 | 1007.6 |
| 20260502103010 | 22 | 90 | 8.0 | 11.3 | 0.00 | 0.00 | 0.00 | 30 | 1007.7 |
| 20260502102510 | 22 | 343 | 1.6 | 9.7 | 0.00 | 0.00 | 0.00 | 31 | 1007.6 |
| 20260502102010 | 22 | 213 | 4.8 | 8.0 | 0.00 | 0.00 | 0.00 | 30 | 1007.6 |
| 20260502101509 | 22 | 288 | 1.6 | 11.3 | 0.00 | 0.00 | 0.00 | 31 | 1007.7 |
| 20260502101009 | 22 | 168 | 1.6 | 3.2 | 0.00 | 0.00 | 0.00 | 31 | 1007.8 |
| 20260502100509 | 22 | 209 | 4.8 | 9.7 | 0.00 | 0.00 | 0.00 | 31 | 1007.9 |
| 20260502091506 | 21 | 95 | 1.6 | 3.2 | 0.00 | 0.00 | 0.00 | 34 | 1008.2 |
| 20260502091005 | 21 | 125 | 1.6 | 8.0 | 0.00 | 0.00 | 0.00 | 35 | 1008.4 |
| 20260502090505 | 21 | 148 | 8.0 | 12.9 | 0.00 | 0.00 | 0.00 | 34 | 1008.3 |
| 20260502071457 | 17 | 120 | 1.6 | 3.2 | 0.00 | 0.00 | 0.00 | 52 | 1008.9 |
| 20260502070957 | 17 | 97 | 0.0 | 3.2 | 0.00 | 0.00 | 0.00 | 52 | 1009.1 |
| 20260502070456 | 17 | 171 | 1.6 | 4.8 | 0.00 | 0.00 | 0.00 | 51 | 1009.0 |
| 20260502065956 | 16 | 127 | 0.0 | 1.6 | 0.00 | 0.00 | 0.00 | 54 | 1008.8 |
| 20260502065456 | 16 | 164 | 3.2 | 4.8 | 0.00 | 0.00 | 0.00 | 55 | 1008.9 |
| 20260502064956 | 16 | 124 | 1.6 | 4.8 | 0.00 | 0.00 | 0.00 | 56 | 1009.0 |
| 20260502064455 | 15 | 116 | 3.2 | 4.8 | 0.00 | 0.00 | 0.00 | 57 | 1008.8 |
| 20260502063955 | 15 | 114 | 4.8 | 8.0 | 0.00 | 0.00 | 0.00 | 57 | 1009.0 |
| 20260502063454 | 15 | 140 | 1.6 | 4.8 | 0.00 | 0.00 | 0.00 | 59 | 1008.8 |
| 20260502062953 | 15 | 114 | 0.0 | 1.6 | 0.00 | 0.00 | 0.00 | 59 | 1008.9 |
| 20260502062453 | 14 | 130 | 1.6 | 3.2 | 0.00 | 0.00 | 0.00 | 60 | 1009.0 |
| 20260502061953 | 13 | 123 | 3.2 | 4.8 | 0.00 | 0.00 | 0.00 | 62 | 1008.8 |
| 20260502061452 | 13 | 131 | 3.2 | 4.8 | 0.00 | 0.00 | 0.00 | 63 | 1008.9 |
| 20260502060952 | 13 | 124 | 1.6 | 4.8 | 0.00 | 0.00 | 0.00 | 63 | 1008.9 |
| 20260502060452 | 13 | 139 | 1.6 | 1.6 | 0.00 | 0.00 | 0.00 | 64 | 1008.9 |
| 20260502055950 | 12 | 122 | 1.6 | 3.2 | 0.00 | 0.00 | 0.00 | 65 | 1008.8 |
| 20260502055450 | 12 | 143 | 0.0 | 3.2 | 0.00 | 0.00 | 0.00 | 67 | 1009.0 |
| 20260502054949 | 12 | 145 | 1.6 | 3.2 | 0.00 | 0.00 | 0.00 | 67 | 1008.9 |
| 20260502054448 | 12 | 123 | 0.0 | 3.2 | 0.00 | 0.00 | 0.00 | 68 | 1008.9 |
| 20260502053948 | 11 | 152 | 1.6 | 3.2 | 0.00 | 0.00 | 0.00 | 68 | 1008.8 |